Weather History for KSRR - January, 2014

Change the Weather History Date:

Friday, January 24, 2014

  Actual Average Record
Temperature  
Mean Temperature 28 °F -  
Max Temperature 48 °F 48 °F 69 °F (1999)
Min Temperature 8 °F 29 °F 8 °F (2014)
Degree Days  
Heating Degree Days 37    
Moisture  
Dew Point 6 °F    
Average Humidity 43    
Maximum Humidity 93    
Minimum Humidity 12    
Precipitation  
Precipitation 0.00 in - - ()
Sea Level Pressure  
Sea Level Pressure 30.39 in    
Wind  
Wind Speed 9 mph (WNW)    
Max Wind Speed 18 mph    
Max Gust Speed 30 mph    
Visibility 10 miles    
Events      
Averages and records for this station are not official NWS values.
T = Trace of Precipitation, MM = Missing Value Source: NWS Daily Summary

Daily Weather History Graph

Daily Weather History Graph

Search for Another Location

Airport or City:

Trip Planner

Search our weather history database for the weather conditions in past years. The results will help you decide how hot, cold, wet, or windy it might be!

Date:

Astronomy

Jan. 24, 2014 Rise Set
Actual Time 7:02 AM MST 5:25 PM MST
Civil Twilight 6:36 AM MST 5:52 PM MST
Nautical Twilight 6:06 AM MST 6:22 PM MST
Astronomical Twilight 5:36 AM MST 6:52 PM MST
Moon 12:37 AM MST (1/24) 11:43 AM MST (1/24)
Length of Visible Light 11h 16m
Length of Day
10h 23m
Last Quarter, 44% of the Moon is Illuminated
Jan 24
Last Quarter
Jan 30
New
Feb 6
First Quarter
Feb 14
Full
Feb 22
Last Quarter

Hourly Weather History & Observations

Time (MST) Temp. Windchill Dew Point Humidity Pressure Visibility Wind Dir Wind Speed Gust Speed Precip Events Conditions
12:15 AM 8.6 °F - 6.8 °F 92% 30.46 in 10.0 mi Calm Calm - N/A   Clear
12:35 AM 8.6 °F - 6.8 °F 92% 30.46 in 10.0 mi Calm Calm - N/A   Clear
12:55 AM 8.6 °F 2.0 °F 5.0 °F 85% 30.45 in 10.0 mi WNW 3.5 mph - N/A   Clear
1:15 AM 8.6 °F 0.1 °F 5.0 °F 85% 30.44 in 10.0 mi West 4.6 mph - N/A   Clear
1:35 AM 8.6 °F 0.1 °F 5.0 °F 85% 30.44 in 10.0 mi NW 4.6 mph - N/A   Clear
1:55 AM 10.4 °F 2.2 °F 6.8 °F 85% 30.44 in 10.0 mi NNW 4.6 mph - N/A   Clear
2:15 AM 10.4 °F 2.2 °F 6.8 °F 85% 30.43 in 10.0 mi NW 4.6 mph - N/A   Clear
2:35 AM 10.4 °F 4.0 °F 6.8 °F 85% 30.43 in 10.0 mi NW 3.5 mph - N/A   Clear
2:55 AM 10.4 °F -1.5 °F 8.6 °F 92% 30.42 in 10.0 mi West 8.1 mph - N/A   Clear
3:15 AM 14.0 °F 3.9 °F 12.2 °F 93% 30.42 in 10.0 mi West 6.9 mph - N/A   Clear
3:35 AM 15.8 °F 5.1 °F 12.2 °F 86% 30.42 in 10.0 mi WSW 8.1 mph - N/A   Clear
3:55 AM 15.8 °F 1.4 °F 14.0 °F 93% 30.41 in 10.0 mi West 13.8 mph - N/A   Clear
4:15 AM 15.8 °F 4.2 °F 12.2 °F 86% 30.41 in 10.0 mi West 9.2 mph - N/A   Clear
4:35 AM 15.8 °F 2.7 °F 12.2 °F 86% 30.41 in 10.0 mi West 11.5 mph - N/A   Clear
4:55 AM 15.8 °F 3.4 °F 12.2 °F 86% 30.40 in 10.0 mi West 10.4 mph - N/A   Clear
5:15 AM 14.0 °F 3.9 °F 10.4 °F 86% 30.40 in 10.0 mi WSW 6.9 mph - N/A   Clear
5:35 AM 15.8 °F 5.1 °F 12.2 °F 86% 30.41 in 10.0 mi West 8.1 mph - N/A   Clear
5:55 AM 19.4 °F 7.2 °F 14.0 °F 80% 30.41 in 10.0 mi WNW 11.5 mph - N/A   Clear
6:15 AM 23.0 °F 13.9 °F 14.0 °F 68% 30.41 in 10.0 mi WNW 8.1 mph - N/A   Clear
6:35 AM 23.0 °F 11.7 °F 14.0 °F 68% 30.41 in 10.0 mi WNW 11.5 mph 17.3 mph N/A   Clear
6:55 AM 24.8 °F 14.0 °F 14.0 °F 64% 30.41 in 10.0 mi NW 11.5 mph 19.6 mph N/A   Clear
7:15 AM 26.6 °F 16.2 °F 14.0 °F 59% 30.41 in 10.0 mi NW 11.5 mph - N/A   Clear
7:35 AM 26.6 °F 15.7 °F 14.0 °F 59% 30.41 in 10.0 mi NW 12.7 mph 20.7 mph N/A   Clear
7:55 AM 28.4 °F 19.1 °F 14.0 °F 55% 30.41 in 10.0 mi NW 10.4 mph 19.6 mph N/A   Clear
8:15 AM 30.2 °F 19.3 °F 14.0 °F 51% 30.41 in 10.0 mi WNW 15.0 mph 19.6 mph N/A   Clear
8:35 AM 32.0 °F 24.8 °F 14.0 °F 48% 30.42 in 10.0 mi WNW 8.1 mph - N/A   Clear
8:55 AM 32.0 °F - 14.0 °F 48% 30.42 in 10.0 mi Calm Calm - N/A   Clear
9:15 AM 35.6 °F 31.7 °F 14.0 °F 41% 30.42 in 10.0 mi North 4.6 mph 17.3 mph N/A   Clear
9:35 AM 37.4 °F 28.5 °F 14.0 °F 38% 30.42 in 10.0 mi WNW 15.0 mph 24.2 mph N/A   Clear
9:55 AM 37.4 °F 28.2 °F 14.0 °F 38% 30.42 in 10.0 mi WNW 16.1 mph 26.5 mph N/A   Clear
10:15 AM 39.2 °F 31.6 °F 14.0 °F 36% 30.42 in 10.0 mi WNW 12.7 mph 24.2 mph N/A   Clear
10:35 AM 39.2 °F 34.2 °F 12.2 °F 33% 30.43 in 10.0 mi NNW 6.9 mph 18.4 mph N/A   Clear
10:55 AM 39.2 °F 31.6 °F 14.0 °F 36% 30.43 in 10.0 mi WNW 12.7 mph 20.7 mph N/A   Clear
11:15 AM 41.0 °F 32.5 °F 10.4 °F 29% 30.43 in 10.0 mi NW 17.3 mph 23.0 mph N/A   Clear
11:35 AM 41.0 °F 33.5 °F 12.2 °F 31% 30.42 in 10.0 mi NW 13.8 mph 23.0 mph N/A   Clear
11:55 AM 41.0 °F 32.5 °F 10.4 °F 29% 30.41 in 10.0 mi NW 17.3 mph 26.5 mph N/A   Clear
12:15 PM 42.8 °F 34.8 °F 10.4 °F 27% 30.40 in 10.0 mi NW 17.3 mph 23.0 mph N/A   Clear
12:35 PM 44.6 °F 37.4 °F 10.4 °F 25% 30.39 in 10.0 mi NW 16.1 mph 20.7 mph N/A   Clear
12:55 PM 44.6 °F 39.2 °F 6.8 °F 21% 30.38 in 10.0 mi NW 10.4 mph 20.7 mph N/A   Clear
1:15 PM 44.6 °F 38.1 °F 3.2 °F 18% 30.37 in 10.0 mi WNW 13.8 mph 21.9 mph N/A   Clear
1:35 PM 46.4 °F 39.8 °F -2.2 °F 13% 30.35 in 10.0 mi NW 16.1 mph 20.7 mph N/A   Clear
1:55 PM 48.2 °F - -0.4 °F 13% 30.35 in 10.0 mi NW 10.4 mph 19.6 mph N/A   Clear
2:15 PM 46.4 °F 40.1 °F -0.4 °F 14% 30.36 in 10.0 mi NW 15.0 mph 19.6 mph N/A   Clear
2:35 PM 46.4 °F 40.4 °F 1.4 °F 16% 30.35 in 10.0 mi NW 13.8 mph - N/A   Clear
2:55 PM 46.4 °F 40.1 °F 1.4 °F 16% 30.34 in 10.0 mi NW 15.0 mph 18.4 mph N/A   Clear
3:15 PM 46.4 °F 40.7 °F -2.2 °F 13% 30.34 in 10.0 mi NW 12.7 mph 19.6 mph N/A   Clear
3:35 PM 46.4 °F 40.1 °F -4.0 °F 12% 30.34 in 10.0 mi WNW 15.0 mph 25.3 mph N/A   Clear
3:55 PM 44.6 °F 37.4 °F -0.4 °F 15% 30.34 in 10.0 mi WNW 16.1 mph 20.7 mph N/A   Clear
4:15 PM 42.8 °F 36.2 °F 5.0 °F 21% 30.34 in 10.0 mi WNW 12.7 mph 19.6 mph N/A   Clear
4:35 PM 41.0 °F 33.9 °F 5.0 °F 23% 30.35 in 10.0 mi WNW 12.7 mph 17.3 mph N/A   Clear
4:55 PM 37.4 °F 30.3 °F 6.8 °F 28% 30.34 in 10.0 mi West 10.4 mph - N/A   Clear
5:15 PM 35.6 °F 28.0 °F 6.8 °F 30% 30.35 in 10.0 mi West 10.4 mph - N/A   Clear
5:35 PM 35.6 °F 26.6 °F 6.8 °F 30% 30.35 in 10.0 mi WNW 13.8 mph - N/A   Clear
5:55 PM 33.8 °F 23.9 °F 6.8 °F 32% 30.35 in 10.0 mi West 15.0 mph - N/A   Clear
6:15 PM 33.8 °F 24.8 °F 6.8 °F 32% 30.35 in 10.0 mi WNW 12.7 mph - N/A   Clear
6:35 PM 33.8 °F 24.3 °F 5.0 °F 30% 30.35 in 10.0 mi West 13.8 mph - N/A   Clear
6:55 PM 33.8 °F 25.3 °F 3.2 °F 28% 30.35 in 10.0 mi West 11.5 mph - N/A   Clear
7:15 PM 33.8 °F 25.3 °F 1.4 °F 25% 30.35 in 10.0 mi West 11.5 mph 18.4 mph N/A   Clear
7:35 PM 37.4 °F 28.2 °F -2.2 °F 19% 30.35 in 10.0 mi WNW 16.1 mph 23.0 mph N/A   Clear
7:55 PM 37.4 °F 28.9 °F -5.8 °F 16% 30.35 in 10.0 mi WNW 13.8 mph 21.9 mph N/A   Clear
8:15 PM 37.4 °F 27.5 °F -4.0 °F 17% 30.35 in 10.0 mi WNW 18.4 mph 24.2 mph N/A   Clear
8:35 PM 39.2 °F 30.2 °F -7.6 °F 14% 30.34 in 10.0 mi WNW 17.3 mph 29.9 mph N/A   Clear
8:55 PM 39.2 °F 30.2 °F -7.6 °F 14% 30.35 in 10.0 mi WNW 17.3 mph 27.6 mph N/A   Clear
9:15 PM 39.2 °F 30.8 °F -7.6 °F 14% 30.35 in 10.0 mi WNW 15.0 mph 24.2 mph N/A   Clear
9:35 PM 39.2 °F 30.2 °F -7.6 °F 14% 30.35 in 10.0 mi WNW 17.3 mph 24.2 mph N/A   Clear
9:55 PM 39.2 °F 30.5 °F -7.6 °F 14% 30.35 in 10.0 mi WNW 16.1 mph 20.7 mph N/A   Clear
10:15 PM 39.2 °F 30.5 °F -4.0 °F 16% 30.35 in 10.0 mi WNW 16.1 mph 25.3 mph N/A   Clear
10:35 PM 39.2 °F 31.2 °F -4.0 °F 16% 30.36 in 10.0 mi WNW 13.8 mph 21.9 mph N/A   Clear
10:55 PM 39.2 °F 31.2 °F -2.2 °F 17% 30.36 in 10.0 mi WNW 13.8 mph 19.6 mph N/A   Clear
11:15 PM 39.2 °F 30.2 °F -2.2 °F 17% 30.35 in 10.0 mi West 17.3 mph 20.7 mph N/A   Clear
11:35 PM 39.2 °F 30.5 °F -2.2 °F 17% 30.35 in 10.0 mi WNW 16.1 mph 23.0 mph N/A   Clear
11:55 PM 39.2 °F 30.2 °F -2.2 °F 17% 30.34 in 10.0 mi WNW 17.3 mph 24.2 mph N/A   Clear